FW6197 Weather Reports


time (UTC)temp
F
wind
direction
speed
knots
gust
knots
rain 1hr
in
rain 24hr
in
rain mn
in
humidity
%
barometer
mb
20260504030628 45 212 0.0 0.9 0.00 0.00 0.00 72 1012.3
20260504030125 44 213 1.7 1.7 0.00 0.00 0.00 74 1012.2
20260504025622 44 208 0.9 0.9 0.00 0.00 0.00 77 1011.9
20260504025119 45 201 0.0 0.0 0.00 0.00 0.00 72 1012.3
20260504024616 46 216 0.9 0.9 0.00 0.00 0.00 72 1012.1
20260504024113 45 191 1.7 1.7 0.00 0.00 0.00 74 1012.2
20260504023609 46 190 1.7 1.7 0.00 0.00 0.00 74 1012.1
20260504023105 46 217 0.0 0.0 0.00 0.00 0.00 72 1012.2
20260504022602 46 208 0.9 0.9 0.00 0.00 0.00 70 1012.1
20260504022058 46 211 0.0 0.0 0.00 0.00 0.00 70 1012.1
20260504021556 47 226 0.0 0.9 0.00 0.00 0.00 69 1012.0
20260504021052 47 202 0.0 0.0 0.00 0.00 0.00 69 1012.1
20260504020549 48 219 0.0 0.0 0.00 0.00 0.00 63 1012.0
20260504020045 47 217 0.0 0.9 0.00 0.00 0.00 67 1012.0
20260504015542 48 190 0.9 0.9 0.00 0.00 0.00 71 1012.3
20260504015038 49 211 0.0 0.0 0.00 0.00 0.00 63 1012.3
20260504014534 49 212 0.0 0.0 0.00 0.00 0.00 59 1012.3
20260504014032 50 213 0.0 0.0 0.00 0.00 0.00 58 1012.3
20260504013529 51 219 0.0 0.0 0.00 0.00 0.00 57 1012.3
20260504013026 51 220 0.0 0.0 0.00 0.00 0.00 55 1012.1
20260504012524 53 211 0.0 0.0 0.00 0.00 0.00 51 1012.3
20260504012022 54 217 0.0 0.0 0.00 0.00 0.00 47 1011.8
20260504011518 53 222 0.0 0.0 0.00 0.00 0.00 47 1011.9
20260504011014 54 220 0.0 0.0 0.00 0.00 0.00 46 1012.0
20260504010510 54 295 0.9 2.6 0.00 0.00 0.00 45 1011.7
20260504010006 55 269 2.6 2.6 0.00 0.00 0.00 44 1011.7
20260504005503 55 259 2.6 2.6 0.00 0.00 0.00 44 1011.9
20260504005000 55 344 3.5 4.3 0.00 0.00 0.00 45 1011.8
20260504004458 55 331 4.3 7.8 0.00 0.00 0.00 43 1012.0
20260504003954 55 264 4.3 6.1 0.00 0.00 0.00 43 1011.5
20260504003450 55 261 4.3 5.2 0.00 0.00 0.00 44 1011.9
20260504002948 55 268 3.5 4.3 0.00 0.00 0.00 42 1011.6
20260504002445 55 253 4.3 6.1 0.00 0.00 0.00 44 1011.8
20260504001942 55 267 2.6 2.6 0.00 0.00 0.00 45 1011.8
20260504001439 55 272 2.6 2.6 0.00 0.00 0.00 44 1011.7
20260504000936 55 323 5.2 7.8 0.00 0.00 0.00 44 1011.9
20260504000433 55 279 2.6 2.6 0.00 0.00 0.00 44 1011.8
20260503235930 55 300 3.5 4.3 0.00 0.00 0.00 43 1011.7
20260503235428 56 309 4.3 6.1 0.00 0.00 0.00 43 1011.8
20260503234925 56 291 4.3 5.2 0.00 0.00 0.00 44 1011.6
20260503234422 56 302 7.0 7.8 0.00 0.00 0.00 41 1011.4
20260503233920 56 306 3.5 4.3 0.00 0.00 0.00 42 1011.4
20260503233417 56 293 1.7 2.6 0.00 0.00 0.00 43 1011.6
20260503232913 56 270 4.3 5.2 0.00 0.00 0.00 41 1011.4
20260503232410 56 266 2.6 4.3 0.00 0.00 0.00 43 1011.6
20260503231908 56 292 0.0 0.0 0.00 0.00 0.00 42 1011.4
20260503231405 57 229 0.0 0.0 0.00 0.00 0.00 41 1011.6
20260503230901 57 298 5.2 6.1 0.00 0.00 0.00 40 1011.3
20260503230358 57 292 3.5 4.3 0.00 0.00 0.00 41 1011.4
20260503225856 57 247 1.7 1.7 0.00 0.00 0.00 42 1011.5
20260503225351 57 355 4.3 5.2 0.00 0.00 0.00 40 1011.3
20260503224848 57 255 9.6 12.2 0.00 0.00 0.00 39 1011.4
20260503224345 57 322 4.3 6.1 0.00 0.00 0.00 41 1011.4
20260503223843 58 321 7.8 9.6 0.00 0.00 0.00 39 1011.3
20260503223340 58 327 5.2 7.0 0.00 0.00 0.00 39 1011.3
20260503222836 58 319 5.2 7.8 0.00 0.00 0.00 40 1011.3
20260503222335 59 325 4.3 5.2 0.00 0.00 0.00 40 1011.3
20260503221832 58 311 7.8 11.3 0.00 0.00 0.00 39 1011.3
20260503221331 57 258 6.1 7.0 0.00 0.00 0.00 40 1011.3
20260503220826 58 314 9.6 15.6 0.00 0.00 0.00 39 1011.2
20260503220323 58 285 7.8 8.7 0.00 0.00 0.00 39 1011.0
20260503215820 58 266 4.3 6.1 0.00 0.00 0.00 40 1011.3
20260503215318 57 330 7.0 7.8 0.00 0.00 0.00 41 1011.3
20260503214815 58 291 7.0 8.7 0.00 0.00 0.00 42 1011.2
20260503214312 58 247 2.6 4.3 0.00 0.00 0.00 41 1011.3
20260503213810 59 299 7.8 8.7 0.00 0.00 0.00 41 1011.3
20260503213307 59 346 5.2 6.1 0.00 0.00 0.00 40 1011.3
20260503212804 58 241 5.2 7.0 0.00 0.00 0.00 41 1011.1
20260503212302 58 315 6.1 7.0 0.00 0.00 0.00 42 1011.0
20260503211759 58 252 4.3 6.1 0.00 0.00 0.00 42 1011.1
20260503211255 58 7 12.2 13.9 0.00 0.00 0.00 41 1011.0
20260503210755 59 314 11.3 14.8 0.00 0.00 0.00 40 1011.1
20260503210253 58 292 10.4 13.0 0.00 0.00 0.00 42 1011.2
20260503205748 59 324 10.4 13.9 0.00 0.00 0.00 42 1011.1
20260503205245 58 307 8.7 9.6 0.00 0.00 0.00 41 1011.3
20260503204741 58 336 8.7 11.3 0.00 0.00 0.00 42 1011.4
20260503204239 58 309 7.0 11.3 0.00 0.00 0.00 41 1011.5
20260503203736 59 220 4.3 6.1 0.00 0.00 0.00 42 1011.5
20260503203234 58 284 7.8 7.8 0.00 0.00 0.00 41 1011.5
20260503202731 57 312 7.0 7.8 0.00 0.00 0.00 43 1011.6
20260503202229 57 231 0.0 0.0 0.00 0.00 0.00 44 1011.5
20260503201726 57 262 9.6 12.2 0.00 0.00 0.00 43 1011.7
20260503201224 57 317 8.7 12.2 0.00 0.00 0.00 41 1011.8
20260503200720 57 307 10.4 13.0 0.00 0.00 0.00 42 1011.8
20260503200216 57 331 9.6 11.3 0.00 0.00 0.00 42 1011.8
20260503195713 57 348 7.8 12.2 0.00 0.00 0.00 44 1011.8
20260503195210 57 215 7.8 11.3 0.00 0.00 0.00 43 1011.8
20260503194707 58 297 5.2 6.1 0.00 0.00 0.00 42 1011.9
20260503194203 58 249 4.3 6.1 0.00 0.00 0.00 43 1011.8
20260503193659 58 236 7.8 9.6 0.00 0.00 0.00 42 1012.2
20260503193155 56 314 5.2 6.1 0.00 0.00 0.00 44 1012.1
20260503192651 57 286 10.4 13.0 0.00 0.00 0.00 42 1012.3
20260503192147 56 297 5.2 7.0 0.00 0.00 0.00 43 1012.5
20260503191643 56 243 6.1 9.6 0.00 0.00 0.00 45 1012.2
20260503191141 56 332 6.1 11.3 0.00 0.00 0.00 45 1012.6
20260503190638 55 274 6.1 7.8 0.00 0.00 0.00 43 1012.4
20260503190134 55 322 7.8 7.8 0.00 0.00 0.00 43 1012.6
20260503185631 55 328 9.6 12.2 0.00 0.00 0.00 43 1012.5
20260503185126 54 327 8.7 9.6 0.00 0.00 0.00 42 1012.8
20260503184621 54 271 9.6 12.2 0.00 0.00 0.00 44 1012.8
20260503184118 54 353 6.1 8.7 0.00 0.00 0.00 44 1013.0
20260503183615 54 341 9.6 9.6 0.00 0.00 0.00 45 1013.1
20260503183112 53 343 7.0 8.7 0.00 0.00 0.00 45 1013.0
20260503182610 54 325 4.3 5.2 0.00 0.00 0.00 45 1013.0
20260503182108 54 326 7.8 9.6 0.00 0.00 0.00 43 1013.0
20260503181605 54 40 6.1 7.0 0.00 0.00 0.00 44 1013.2
20260503181102 54 5 4.3 7.8 0.00 0.00 0.00 43 1013.4
20260503180559 53 345 11.3 13.9 0.00 0.00 0.00 43 1013.1
20260503180056 53 324 5.2 7.0 0.00 0.00 0.00 44 1013.3
20260503175553 53 300 5.2 7.0 0.00 0.00 0.00 46 1013.1
20260503175050 53 300 9.6 20.9 0.00 0.00 0.00 44 1013.4
20260503174547 53 312 3.5 6.1 0.00 0.00 0.00 45 1013.4
20260503174044 53 316 8.7 13.0 0.00 0.00 0.00 45 1013.2
20260503173539 53 260 7.0 7.8 0.00 0.00 0.00 44 1013.6
20260503173035 52 338 10.4 13.9 0.00 0.00 0.00 43 1013.4
20260503172533 53 337 12.2 13.9 0.00 0.00 0.00 44 1013.4
20260503172030 52 342 6.1 7.0 0.00 0.00 0.00 44 1013.7
20260503171526 51 351 7.0 8.7 0.00 0.00 0.00 44 1013.5
20260503171024 51 339 10.4 13.0 0.00 0.00 0.00 45 1013.7
20260503170520 52 349 13.0 19.1 0.00 0.00 0.00 45 1013.7
20260503150912 50 330 7.0 7.8 0.00 0.00 0.00 49 1014.5
20260503150409 50 339 7.8 9.6 0.00 0.00 0.00 49 1014.8
20260503131302 45 104 1.7 2.6 0.00 0.00 0.00 60 1015.3
20260503130800 44 311 5.2 7.0 0.00 0.00 0.00 61 1015.4
20260503130257 44 344 3.5 4.3 0.00 0.00 0.00 60 1015.4
20260503110650 30 212 0.0 0.9 0.00 0.00 0.00 97 1015.8
20260503110148 29 221 0.0 0.0 0.00 0.00 0.00 97 1015.8
20260503100114 29 222 0.0 0.0 0.00 0.00 0.00 96 1015.1
20260503081504 33 223 0.0 0.0 0.00 0.00 0.00 90 1015.2
20260503081001 34 223 0.0 0.0 0.00 0.00 0.00 89 1015.1
20260503080457 34 221 0.0 0.0 0.00 0.00 0.00 88 1015.1
20260503072933 36 226 0.0 0.0 0.00 0.00 0.00 84 1015.0
20260503072431 37 234 0.9 0.9 0.00 0.00 0.00 83 1015.1
20260503071928 37 237 0.9 0.9 0.00 0.00 0.00 83 1015.1
20260503071425 37 239 0.9 0.9 0.00 0.00 0.00 83 1014.9
20260503070921 37 242 0.9 1.7 0.00 0.00 0.00 83 1015.1
20260503070418 37 251 1.7 1.7 0.00 0.00 0.00 82 1015.0
20260503054832 37 234 0.9 0.9 0.00 0.00 0.00 83 1015.3
20260503054327 37 228 0.0 0.0 0.00 0.00 0.00 82 1015.5
20260503053826 37 235 0.9 0.9 0.00 0.00 0.00 82 1015.4
20260503053324 37 236 0.9 0.9 0.00 0.00 0.00 81 1015.2
20260503052820 37 239 0.9 0.9 0.00 0.00 0.00 81 1015.4
20260503052317 37 234 0.9 0.9 0.00 0.00 0.00 81 1015.5
20260503051813 37 263 1.7 1.7 0.00 0.00 0.00 81 1015.4
20260503051309 37 245 0.9 1.7 0.00 0.00 0.00 81 1015.8
20260503050806 37 252 1.7 1.7 0.00 0.00 0.00 81 1015.6
20260503050302 37 230 0.0 0.0 0.00 0.00 0.00 80 1015.6
20260503045800 38 232 0.9 0.9 0.00 0.00 0.00 80 1015.5
20260503045258 38 239 0.9 0.9 0.00 0.00 0.00 79 1015.6
20260503044754 38 233 0.0 0.9 0.00 0.00 0.00 79 1015.8
20260503044251 38 259 1.7 1.7 0.00 0.00 0.00 78 1016.1
20260503043748 38 234 0.9 0.9 0.00 0.00 0.00 78 1016.1
20260503043245 37 240 0.9 0.9 0.00 0.00 0.00 79 1016.1
20260503042741 38 238 0.9 0.9 0.00 0.00 0.00 79 1016.1
20260503042238 38 247 1.7 1.7 0.00 0.00 0.00 80 1015.8
20260503041734 38 243 0.9 0.9 0.00 0.00 0.00 79 1016.1
20260503041232 38 237 0.9 0.9 0.00 0.00 0.00 79 1016.1
20260503040729 38 256 1.7 1.7 0.00 0.00 0.00 79 1016.2
20260503040221 38 230 0.0 0.9 0.00 0.00 0.00 79 1016.1
20260503035717 38 251 1.7 1.7 0.00 0.01 0.01 79 1016.2
20260503035215 38 233 0.9 0.9 0.00 0.01 0.01 79 1016.3
20260503034712 38 228 0.0 0.0 0.00 0.01 0.01 79 1016.4
20260503034209 38 244 0.0 0.9 0.00 0.01 0.01 79 1016.1
20260503033706 38 227 0.0 0.0 0.00 0.01 0.01 79 1016.4
20260503033204 38 230 0.0 0.0 0.00 0.01 0.01 78 1016.2
20260503032702 38 236 0.9 0.9 0.00 0.01 0.01 78 1016.0
20260503032200 38 230 0.0 0.0 0.00 0.01 0.01 77 1016.1
20260503031657 38 254 1.7 1.7 0.00 0.01 0.01 76 1016.0
20260503031155 38 253 1.7 1.7 0.00 0.01 0.01 76 1015.8